TimeAKST,TemperatureF,Dew PointF,Humidity,Sea Level PressureIn,VisibilityMPH,Wind Direction,Wind SpeedMPH,Gust SpeedMPH,PrecipitationIn,Events,Conditions,WindDirDegrees,DateUTC
12:09 AM,3.2,-0.4,85,29.35,8.0,East,4.6,-,N/A,,Overcast,80,2013-02-21 09:09:00
12:53 AM,3.9,-0.0,84,29.37,4.0,ESE,4.6,-,0.00,Snow,Light Snow,120,2013-02-21 09:53:00
1:53 AM,3.9,-0.0,84,29.37,4.0,South,9.2,-,0.00,Snow,Light Snow,190,2013-02-21 10:53:00
2:53 AM,3.0,-0.0,87,29.36,6.0,South,5.8,-,0.00,Snow,Light Snow,190,2013-02-21 11:53:00
3:53 AM,3.0,-0.9,84,29.35,5.0,South,4.6,-,0.00,Snow,Light Snow,180,2013-02-21 12:53:00
4:53 AM,3.0,-0.0,87,29.34,5.0,SSE,5.8,-,0.00,Snow,Light Snow,160,2013-02-21 13:53:00
5:53 AM,1.9,-0.9,88,29.33,4.0,South,5.8,-,0.00,Snow,Light Snow,190,2013-02-21 14:53:00
6:53 AM,1.9,-0.9,88,29.33,10.0,SW,3.5,-,0.00,,Overcast,230,2013-02-21 15:53:00
7:53 AM,1.9,-2.0,83,29.33,6.0,Calm,Calm,-,0.00,Snow,Light Snow,0,2013-02-21 16:53:00
8:24 AM,1.4,-2.2,85,29.32,2.0,South,3.5,-,0.00,Snow,Light Snow,180,2013-02-21 17:24:00
8:31 AM,1.4,-2.2,85,29.32,1.5,South,3.5,-,0.01,Snow,Light Snow,180,2013-02-21 17:31:00
8:53 AM,1.0,-2.0,87,29.34,1.0,SSE,3.5,-,0.01,Snow,Light Snow,160,2013-02-21 17:53:00
9:46 AM,1.4,-2.2,85,29.32,1.0,Calm,Calm,-,0.00,Snow,Light Snow,0,2013-02-21 18:46:00
9:53 AM,1.0,-2.9,83,29.34,3.0,SSE,4.6,-,0.00,Snow,Light Snow,150,2013-02-21 18:53:00
10:53 AM,-0.0,-2.9,88,29.34,4.0,SSE,4.6,-,0.00,,Overcast,150,2013-02-21 19:53:00
10:55 AM,-0.4,-2.2,92,29.51,10.0,SSE,4.6,-,N/A,,Mostly Cloudy,160,2013-02-21 19:55:00
11:53 AM,-0.0,-2.9,88,29.36,10.0,SSE,3.5,-,0.00,,Mostly Cloudy,150,2013-02-21 20:53:00
12:53 PM,1.0,-2.9,83,29.37,10.0,WSW,3.5,-,N/A,,Scattered Clouds,240,2013-02-21 21:53:00
1:53 PM,3.0,-0.0,87,29.37,10.0,SW,3.5,-,N/A,,Scattered Clouds,230,2013-02-21 22:53:00
2:53 PM,5.0,-0.0,80,29.38,10.0,NW,4.6,-,N/A,,Mostly Cloudy,310,2013-02-21 23:53:00
3:53 PM,3.9,-0.9,80,29.39,3.0,NW,5.8,-,0.00,Snow,Light Snow,310,2013-02-22 00:53:00
4:53 PM,3.9,-0.9,80,29.41,3.0,NW,5.8,-,0.00,,Overcast,310,2013-02-22 01:53:00
5:53 PM,3.0,-0.9,84,29.43,7.0,West,4.6,-,N/A,,Overcast,270,2013-02-22 02:53:00
6:53 PM,-0.0,-2.9,88,29.44,10.0,West,5.8,-,N/A,,Scattered Clouds,270,2013-02-22 03:53:00
7:53 PM,-2.0,-5.1,87,29.46,10.0,WSW,5.8,-,N/A,,Overcast,250,2013-02-22 04:53:00
8:53 PM,-4.0,-8.0,83,29.48,10.0,West,5.8,-,N/A,,Overcast,270,2013-02-22 05:53:00
9:19 PM,-5.8,-9.4,84,29.47,6.0,WSW,6.9,-,N/A,,Mostly Cloudy,250,2013-02-22 06:19:00
9:53 PM,-6.0,-9.0,87,29.49,5.0,West,6.9,-,N/A,,Partly Cloudy,260,2013-02-22 06:53:00
10:53 PM,-5.1,-8.0,87,29.50,10.0,West,4.6,-,N/A,,Partly Cloudy,280,2013-02-22 07:53:00
11:53 PM,-4.0,-7.1,87,29.51,10.0,WNW,3.5,-,N/A,,Scattered Clouds,290,2013-02-22 08:53:00